QPF
0.00 0.00 0.00 0.00 0.00 0.00 0.00 0.00 0.00 0.00 0.00 0.00 0.00 0.01 0.00 0.00 0.00 0.00 0.00 0.01 0.02 0.02 0.01 0.01 0.01 0.01 0.02 0.02 0.02 0.01 0.01 0.02 0.02 0.02 0.03 0.02 0.02 0.03 0.02 0.02 0.03 0.02 0.02 0.02
0.00 0.00 0.00 0.00 0.00 0.00 0.00 0.00 0.00 0.00 0.00 0.00 0.00 0.00 0.00 0.00 0.00 0.00 0.02 0.03 0.03 0.02 0.01 0.01 0.01 0.02 0.02 0.02 0.02 0.02 0.01 0.01 0.02 0.03 0.02 0.02 0.03 0.03 0.02 0.02 0.02 0.02 0.02 0.02
0.00 0.00 0.00 0.00 0.00 0.00 0.00 0.00 0.00 0.00 0.00 0.00 0.00 0.00 0.00 0.00 0.00 0.00 0.01 0.02 0.01 0.02 0.01 0.01 0.01 0.02 0.02 0.03 0.02 0.02 0.02 0.01 0.03 0.03 0.02 0.02 0.02 0.03 0.03 0.02 0.02 0.02 0.02 0.02
0.00 0.00 0.00 0.00 0.00 0.00 0.00 0.00 0.00 0.00 0.00 0.00 0.00 0.00 0.00 0.00 0.00 0.00 0.00 0.00 0.00 0.01 0.01 0.01 0.01 0.02 0.02 0.02 0.01 0.02 0.02 0.02 0.03 0.03 0.02 0.02 0.02 0.03 0.02 0.02 0.03 0.03 0.03 0.03
0.00 0.00 0.00 0.00 0.00 0.00 0.00 0.00 0.00 0.00 0.00 0.00 0.00 0.00 0.00 0.00 0.00 0.00 0.00 0.00 0.00 0.00 0.00 0.00 0.01 0.01 0.02 0.02 0.02 0.02 0.02 0.02 0.03 0.03 0.02 0.02 0.02 0.02 0.03 0.03 0.02 0.02 0.02 0.03
0.00 0.00 0.00 0.00 0.00 0.00 0.00 0.00 0.00 0.00 0.00 0.00 0.00 0.00 0.00 0.00 0.00 0.00 0.00 0.00 0.01 0.01 0.01 0.01 0.01 0.02 0.02 0.01 0.02 0.02 0.02 0.03 0.03 0.03 0.02 0.02 0.03 0.03 0.04 0.03 0.03 0.02 0.02 0.03
0.00 0.00 0.00 0.00 0.00 0.00 0.00 0.00 0.00 0.00 0.00 0.00 0.00 0.00 0.00 0.00 0.00 0.00 0.00 0.00 0.01 0.01 0.04 0.06 0.03 0.02 0.01 0.01 0.01 0.01 0.02 0.03 0.04 0.02 0.02 0.02 0.01 0.02 0.03 0.03 0.04 0.03 0.03 0.03
0.00 0.00 0.00 0.00 0.00 0.00 0.00 0.00 0.00 0.00 0.00 0.00 0.00 0.00 0.00 0.00 0.00 0.00 0.00 0.00 0.01 0.01 0.07 0.13 0.05 0.02 0.01 0.01 0.01 0.01 0.02 0.03 0.04 0.02 0.01 0.01 0.02 0.02 0.02 0.03 0.03 0.04 0.04 0.05
0.00 0.00 0.00 0.00 0.00 0.00 0.00 0.00 0.00 0.00 0.00 0.00 0.00 0.00 0.00 0.00 0.00 0.00 0.01 0.01 0.01 0.02 0.06 0.08 0.04 0.01 0.01 0.01 0.01 0.01 0.01 0.02 0.03 0.01 0.00 0.00 0.01 0.02 0.02 0.02 0.03 0.04 0.05 0.05
0.00 0.00 0.00 0.00 0.00 0.00 0.00 0.00 0.00 0.00 0.00 0.00 0.00 0.00 0.00 0.00 0.00 0.00 0.01 0.01 0.01 0.05 0.09 0.06 0.03 0.01 0.01 0.00 0.00 0.00 0.00 0.01 0.01 0.00 0.00 0.00 0.00 0.00 0.01 0.01 0.03 0.04 0.05 0.05
0.00 0.00 0.00 0.00 0.00 0.00 0.00 0.00 0.00 0.00 0.00 0.00 0.00 0.00 0.00 0.00 0.00 0.00 0.00 0.00 0.00 0.02 0.01 0.02 0.01 0.00 0.00 0.00 0.00 0.00 0.00 0.00 0.00 0.00 0.01 0.01 0.00 0.01 0.01 0.01 0.02 0.02 0.03 0.05
0.00 0.00 0.00 0.00 0.00 0.00 0.00 0.00 0.00 0.00 0.00 0.00 0.00 0.00 0.00 0.00 0.00 0.00 0.00 0.00 0.00 0.00 0.01 0.01 0.00 0.00 0.00 0.00 0.00 0.00 0.00 0.01 0.01 0.01 0.01 0.01 0.00 0.01 0.01 0.01 0.01 0.02 0.03 0.05
0.00 0.00 0.00 0.00 0.00 0.00 0.00 0.00 0.00 0.00 0.00 0.00 0.00 0.00 0.00 0.00 0.00 0.00 0.00 0.00 0.00 0.00 0.00 0.00 0.00 0.00 0.00 0.00 0.00 0.00 0.01 0.00 0.01 0.01 0.01 0.01 0.01 0.01 0.01 0.01 0.02 0.04 0.03 0.02
0.00 0.00 0.00 0.00 0.00 0.00 0.00 0.00 0.00 0.00 0.00 0.00 0.00 0.00 0.00 0.00 0.00 0.00 0.00 0.00 0.00 0.00 0.00 0.00 0.00 0.00 0.01 0.01 0.01 0.01 0.01 0.01 0.00 0.00 0.01 0.01 0.03 0.03 0.03 0.02 0.02 0.04 0.04 0.03
0.00 0.00 0.00 0.00 0.00 0.00 0.00 0.00 0.00 0.00 0.00 0.00 0.00 0.00 0.00 0.00 0.00 0.00 0.00 0.00 0.00 0.00 0.00 0.00 0.00 0.00 0.01 0.01 0.01 0.02 0.01 0.01 0.00 0.00 0.01 0.04 0.06 0.04 0.03 0.03 0.03 0.03 0.04 0.04
0.00 0.00 0.00 0.00 0.00 0.00 0.00 0.00 0.00 0.00 0.00 0.00 0.00 0.00 0.00 0.00 0.00 0.00 0.00 0.00 0.00 0.00 0.00 0.00 0.00 0.01 0.01 0.01 0.03 0.06 0.03 0.01 0.01 0.01 0.03 0.07 0.07 0.04 0.03 0.03 0.04 0.05 0.05 0.04
0.00 0.00 0.00 0.00 0.00 0.00 0.00 0.00 0.00 0.00 0.00 0.00 0.00 0.00 0.00 0.00 0.00 0.00 0.00 0.01 0.01 0.00 0.01 0.01 0.01 0.01 0.01 0.01 0.01 0.02 0.02 0.02 0.02 0.02 0.04 0.05 0.05 0.04 0.03 0.04 0.05 0.05 0.05 0.04
0.00 0.00 0.00 0.00 0.00 0.00 0.00 0.00 0.00 0.01 0.01 0.00 0.00 0.00 0.00 0.00 0.00 0.01 0.01 0.01 0.01 0.00 0.01 0.01 0.01 0.01 0.01 0.02 0.02 0.04 0.06 0.04 0.04 0.04 0.04 0.05 0.05 0.04 0.04 0.04 0.05 0.04 0.04 0.03
0.00 0.00 0.00 0.00 0.00 0.00 0.00 0.00 0.00 0.01 0.01 0.00 0.00 0.00 0.00 0.00 0.00 0.00 0.00 0.00 0.01 0.01 0.01 0.01 0.01 0.01 0.01 0.02 0.03 0.04 0.07 0.06 0.07 0.06 0.04 0.04 0.04 0.05 0.05 0.06 0.06 0.06 0.04 0.02
0.00 0.00 0.00 0.00 0.00 0.00 0.00 0.00 0.00 0.01 0.01 0.00 0.01 0.01 0.01 0.00 0.00 0.00 0.00 0.00 0.00 0.01 0.01 0.01 0.02 0.02 0.02 0.04 0.05 0.06 0.07 0.08 0.09 0.10 0.08 0.06 0.05 0.05 0.04 0.04 0.03 0.03 0.02 0.01
0.00 0.00 0.00 0.00 0.00 0.00 0.00 0.00 0.00 0.00 0.00 0.01 0.00 0.01 0.01 0.01 0.01 0.01 0.00 0.01 0.01 0.02 0.02 0.01 0.02 0.03 0.04 0.07 0.10 0.11 0.09 0.09 0.11 0.12 0.12 0.13 0.12 0.10 0.05 0.03 0.02 0.02 0.01 0.00
0.00 0.00 0.00 0.00 0.00 0.00 0.00 0.00 0.00 0.00 0.00 0.00 0.00 0.00 0.01 0.01 0.01 0.01 0.01 0.01 0.01 0.01 0.01 0.01 0.03 0.05 0.08 0.14 0.18 0.14 0.10 0.10 0.12 0.13 0.13 0.13 0.12 0.11 0.08 0.04 0.03 0.02 0.01 0.00
0.01 0.01 0.00 0.00 0.00 0.00 0.00 0.00 0.00 0.01 0.01 0.01 0.01 0.01 0.01 0.02 0.02 0.02 0.02 0.02 0.02 0.02 0.01 0.02 0.03 0.04 0.07 0.10 0.11 0.10 0.09 0.10 0.11 0.11 0.09 0.08 0.08 0.07 0.06 0.05 0.03 0.02 0.02 0.01
0.01 0.01 0.01 0.00 0.00 0.00 0.00 0.01 0.02 0.02 0.02 0.02 0.02 0.01 0.01 0.02 0.02 0.03 0.03 0.03 0.03 0.03 0.03 0.03 0.04 0.04 0.05 0.08 0.08 0.08 0.07 0.08 0.11 0.10 0.08 0.09 0.10 0.12 0.11 0.07 0.07 0.06 0.05 0.04
0.01 0.01 0.01 0.01 0.01 0.01 0.01 0.02 0.03 0.03 0.03 0.03 0.02 0.02 0.03 0.04 0.05 0.04 0.04 0.04 0.04 0.04 0.06 0.07 0.07 0.07 0.07 0.06 0.07 0.07 0.08 0.09 0.12 0.12 0.12 0.11 0.09 0.08 0.13 0.10 0.08 0.07 0.06 0.05
0.01 0.01 0.01 0.01 0.01 0.01 0.02 0.02 0.03 0.03 0.04 0.04 0.03 0.04 0.04 0.05 0.07 0.07 0.06 0.06 0.07 0.08 0.11 0.12 0.12 0.13 0.14 0.12 0.10 0.11 0.13 0.14 0.14 0.15 0.17 0.14 0.09 0.07 0.07 0.05 0.05 0.05 0.04 0.04
MSLP
1011.55 1012.51 1013.30 1013.89 1014.30 1014.55 1014.69 1014.77 1014.83 1014.89 1014.94 1014.98 1015.00 1015.00 1014.98 1014.96 1014.96 1014.99 1015.07 1015.19 1015.34 1015.49 1015.62 1015.71 1015.75 1015.74 1015.71 1015.67 1015.66 1015.70 1015.80 1015.94 1016.10 1016.26 1016.40 1016.47 1016.48 1016.43 1016.33 1016.22 1016.12 1016.07 1016.07 1016.13
1012.30 1013.07 1013.65 1014.06 1014.31 1014.48 1014.60 1014.74 1014.89 1015.06 1015.22 1015.33 1015.38 1015.35 1015.26 1015.13 1015.02 1014.95 1014.96 1015.04 1015.20 1015.40 1015.59 1015.74 1015.82 1015.83 1015.79 1015.72 1015.66 1015.66 1015.72 1015.85 1016.03 1016.23 1016.40 1016.52 1016.55 1016.51 1016.39 1016.24 1016.09 1015.97 1015.91 1015.92
1012.83 1013.37 1013.74 1013.97 1014.11 1014.24 1014.41 1014.65 1014.95 1015.28 1015.57 1015.76 1015.83 1015.75 1015.55 1015.27 1015.00 1014.78 1014.68 1014.71 1014.86 1015.09 1015.34 1015.56 1015.70 1015.76 1015.73 1015.65 1015.58 1015.55 1015.59 1015.72 1015.92 1016.16 1016.38 1016.55 1016.63 1016.61 1016.50 1016.33 1016.14 1015.97 1015.86 1015.83
1013.12 1013.45 1013.63 1013.72 1013.80 1013.96 1014.24 1014.65 1015.14 1015.65 1016.08 1016.36 1016.41 1016.25 1015.89 1015.42 1014.94 1014.54 1014.29 1014.22 1014.33 1014.58 1014.89 1015.19 1015.41 1015.53 1015.55 1015.49 1015.42 1015.38 1015.43 1015.57 1015.79 1016.07 1016.35 1016.57 1016.70 1016.72 1016.64 1016.47 1016.27 1016.07 1015.92 1015.84
1013.27 1013.41 1013.43 1013.44 1013.53 1013.78 1014.21 1014.83 1015.54 1016.24 1016.81 1017.14 1017.16 1016.87 1016.32 1015.62 1014.89 1014.26 1013.83 1013.65 1013.71 1013.96 1014.32 1014.69 1015.01 1015.21 1015.29 1015.28 1015.23 1015.20 1015.25 1015.40 1015.65 1015.96 1016.29 1016.57 1016.77 1016.84 1016.79 1016.65 1016.45 1016.25 1016.08 1015.96
1013.36 1013.34 1013.27 1013.25 1013.39 1013.77 1014.40 1015.23 1016.16 1017.04 1017.71 1018.06 1018.01 1017.57 1016.81 1015.85 1014.87 1014.00 1013.38 1013.07 1013.07 1013.32 1013.72 1014.18 1014.58 1014.87 1015.02 1015.06 1015.05 1015.04 1015.10 1015.26 1015.52 1015.87 1016.24 1016.57 1016.82 1016.95 1016.96 1016.86 1016.68 1016.49 1016.31 1016.17
1013.48 1013.35 1013.23 1013.22 1013.45 1013.97 1014.79 1015.82 1016.93 1017.94 1018.68 1019.01 1018.87 1018.26 1017.28 1016.08 1014.86 1013.78 1012.99 1012.56 1012.50 1012.74 1013.19 1013.72 1014.20 1014.57 1014.80 1014.89 1014.91 1014.92 1014.98 1015.15 1015.43 1015.79 1016.20 1016.58 1016.88 1017.07 1017.14 1017.08 1016.95 1016.78 1016.60 1016.45
1013.68 1013.48 1013.33 1013.37 1013.69 1014.34 1015.31 1016.49 1017.72 1018.80 1019.55 1019.83 1019.58 1018.81 1017.65 1016.24 1014.83 1013.58 1012.66 1012.15 1012.05 1012.30 1012.79 1013.37 1013.92 1014.35 1014.63 1014.77 1014.82 1014.84 1014.91 1015.08 1015.37 1015.75 1016.18 1016.60 1016.96 1017.21 1017.33 1017.33 1017.24 1017.10 1016.94 1016.79
1013.96 1013.72 1013.58 1013.65 1014.04 1014.79 1015.84 1017.10 1018.37 1019.45 1020.17 1020.37 1020.00 1019.11 1017.80 1016.27 1014.73 1013.39 1012.40 1011.86 1011.74 1012.00 1012.51 1013.13 1013.72 1014.20 1014.51 1014.67 1014.74 1014.77 1014.85 1015.03 1015.33 1015.73 1016.20 1016.66 1017.07 1017.37 1017.54 1017.60 1017.55 1017.45 1017.31 1017.16
1014.27 1014.01 1013.88 1013.98 1014.41 1015.19 1016.27 1017.52 1018.76 1019.79 1020.42 1020.52 1020.06 1019.08 1017.70 1016.11 1014.54 1013.18 1012.19 1011.65 1011.55 1011.82 1012.34 1012.96 1013.56 1014.04 1014.37 1014.55 1014.62 1014.67 1014.77 1014.97 1015.29 1015.73 1016.23 1016.73 1017.19 1017.54 1017.77 1017.87 1017.87 1017.79 1017.68 1017.55
1014.54 1014.29 1014.17 1014.29 1014.72 1015.49 1016.52 1017.69 1018.83 1019.75 1020.26 1020.27 1019.74 1018.71 1017.33 1015.76 1014.24 1012.94 1012.00 1011.50 1011.42 1011.69 1012.19 1012.80 1013.37 1013.83 1014.14 1014.32 1014.41 1014.48 1014.62 1014.86 1015.23 1015.71 1016.26 1016.81 1017.32 1017.72 1017.99 1018.13 1018.16 1018.11 1018.01 1017.90
1014.74 1014.52 1014.41 1014.54 1014.95 1015.65 1016.59 1017.64 1018.63 1019.40 1019.79 1019.71 1019.13 1018.11 1016.78 1015.30 1013.88 1012.68 1011.82 1011.37 1011.30 1011.56 1012.02 1012.56 1013.08 1013.49 1013.77 1013.94 1014.05 1014.17 1014.36 1014.67 1015.10 1015.65 1016.26 1016.87 1017.42 1017.87 1018.18 1018.34 1018.40 1018.36 1018.28 1018.17
1014.88 1014.69 1014.61 1014.74 1015.11 1015.74 1016.55 1017.45 1018.28 1018.89 1019.16 1018.99 1018.39 1017.41 1016.16 1014.80 1013.51 1012.43 1011.66 1011.25 1011.18 1011.38 1011.77 1012.22 1012.65 1013.00 1013.24 1013.42 1013.56 1013.73 1014.00 1014.39 1014.91 1015.54 1016.21 1016.88 1017.47 1017.95 1018.28 1018.46 1018.53 1018.50 1018.43 1018.34
1015.02 1014.89 1014.85 1014.97 1015.31 1015.85 1016.54 1017.28 1017.95 1018.40 1018.54 1018.31 1017.70 1016.77 1015.62 1014.38 1013.22 1012.24 1011.53 1011.14 1011.03 1011.16 1011.43 1011.77 1012.10 1012.37 1012.58 1012.76 1012.95 1013.19 1013.55 1014.04 1014.65 1015.36 1016.09 1016.80 1017.43 1017.92 1018.26 1018.46 1018.52 1018.51 1018.44 1018.37
1015.28 1015.20 1015.21 1015.35 1015.66 1016.12 1016.69 1017.28 1017.78 1018.09 1018.12 1017.82 1017.20 1016.32 1015.25 1014.12 1013.05 1012.15 1011.47 1011.05 1010.87 1010.89 1011.04 1011.24 1011.46 1011.66 1011.84 1012.03 1012.27 1012.60 1013.05 1013.64 1014.33 1015.10 1015.89 1016.63 1017.27 1017.77 1018.11 1018.29 1018.36 1018.35 1018.30 1018.25
1015.75 1015.75 1015.80 1015.96 1016.24 1016.63 1017.09 1017.53 1017.88 1018.05 1017.97 1017.62 1016.98 1016.13 1015.12 1014.06 1013.05 1012.18 1011.49 1011.01 1010.73 1010.61 1010.62 1010.69 1010.80 1010.92 1011.08 1011.29 1011.58 1011.98 1012.52 1013.18 1013.95 1014.76 1015.58 1016.33 1016.96 1017.46 1017.79 1017.98 1018.05 1018.05 1018.02 1017.99
1016.52 1016.57 1016.66 1016.83 1017.08 1017.40 1017.74 1018.06 1018.27 1018.31 1018.13 1017.71 1017.05 1016.20 1015.22 1014.20 1013.21 1012.33 1011.60 1011.03 1010.63 1010.38 1010.23 1010.18 1010.18 1010.24 1010.37 1010.59 1010.92 1011.38 1011.98 1012.69 1013.49 1014.33 1015.14 1015.88 1016.51 1016.99 1017.32 1017.52 1017.61 1017.64 1017.64 1017.65
1017.56 1017.65 1017.76 1017.91 1018.12 1018.35 1018.59 1018.78 1018.86 1018.78 1018.50 1018.01 1017.33 1016.47 1015.51 1014.50 1013.51 1012.59 1011.79 1011.13 1010.61 1010.21 1009.93 1009.75 1009.65 1009.65 1009.75 1009.96 1010.31 1010.79 1011.41 1012.14 1012.94 1013.77 1014.56 1015.29 1015.90 1016.38 1016.72 1016.95 1017.08 1017.16 1017.21 1017.27
1018.78 1018.87 1018.96 1019.07 1019.20 1019.35 1019.47 1019.53 1019.48 1019.30 1018.94 1018.40 1017.69 1016.83 1015.88 1014.87 1013.87 1012.92 1012.06 1011.30 1010.67 1010.14 1009.74 1009.44 1009.25 1009.18 1009.23 1009.41 1009.74 1010.21 1010.81 1011.51 1012.28 1013.07 1013.84 1014.55 1015.16 1015.65 1016.04 1016.32 1016.53 1016.68 1016.80 1016.91
1020.00 1020.05 1020.09 1020.13 1020.16 1020.19 1020.19 1020.13 1019.98 1019.71 1019.29 1018.73 1018.01 1017.17 1016.24 1015.25 1014.25 1013.28 1012.37 1011.54 1010.81 1010.18 1009.66 1009.26 1008.97 1008.81 1008.79 1008.92 1009.19 1009.60 1010.14 1010.79 1011.50 1012.25 1012.98 1013.68 1014.31 1014.86 1015.32 1015.69 1016.00 1016.25 1016.46 1016.64
1021.03 1021.01 1020.96 1020.90 1020.82 1020.72 1020.61 1020.44 1020.21 1019.88 1019.44 1018.88 1018.19 1017.40 1016.52 1015.58 1014.61 1013.65 1012.72 1011.84 1011.04 1010.32 1009.71 1009.20 1008.81 1008.55 1008.44 1008.46 1008.64 1008.96 1009.42 1009.98 1010.62 1011.32 1012.04 1012.74 1013.42 1014.04 1014.61 1015.10 1015.53 1015.90 1016.21 1016.46
1021.71 1021.60 1021.44 1021.25 1021.05 1020.84 1020.62 1020.38 1020.09 1019.74 1019.32 1018.80 1018.19 1017.48 1016.69 1015.83 1014.93 1014.01 1013.09 1012.19 1011.35 1010.56 1009.86 1009.25 1008.76 1008.39 1008.15 1008.06 1008.12 1008.33 1008.67 1009.14 1009.72 1010.37 1011.08 1011.81 1012.55 1013.28 1013.97 1014.60 1015.17 1015.66 1016.07 1016.40
1021.97 1021.75 1021.48 1021.17 1020.86 1020.55 1020.24 1019.95 1019.64 1019.32 1018.95 1018.52 1018.01 1017.43 1016.76 1016.01 1015.20 1014.35 1013.46 1012.58 1011.71 1010.88 1010.10 1009.41 1008.81 1008.33 1007.97 1007.76 1007.69 1007.77 1008.00 1008.38 1008.88 1009.50 1010.20 1010.98 1011.80 1012.63 1013.45 1014.22 1014.92 1015.53 1016.03 1016.41
1021.84 1021.52 1021.14 1020.73 1020.32 1019.93 1019.58 1019.26 1018.98 1018.70 1018.42 1018.10 1017.72 1017.28 1016.75 1016.13 1015.43 1014.66 1013.84 1012.98 1012.11 1011.26 1010.44 1009.68 1008.99 1008.41 1007.94 1007.61 1007.42 1007.38 1007.51 1007.80 1008.24 1008.82 1009.53 1010.35 1011.23 1012.16 1013.08 1013.97 1014.78 1015.48 1016.06 1016.48
1021.46 1021.05 1020.57 1020.08 1019.60 1019.16 1018.79 1018.49 1018.24 1018.03 1017.84 1017.64 1017.40 1017.09 1016.69 1016.20 1015.62 1014.94 1014.19 1013.38 1012.54 1011.68 1010.85 1010.05 1009.31 1008.66 1008.11 1007.69 1007.40 1007.28 1007.32 1007.53 1007.92 1008.47 1009.17 1010.00 1010.93 1011.91 1012.90 1013.86 1014.74 1015.50 1016.11 1016.55
1020.99 1020.51 1019.97 1019.43 1018.91 1018.46 1018.08 1017.80 1017.60 1017.46 1017.36 1017.25 1017.12 1016.92 1016.64 1016.25 1015.76 1015.17 1014.50 1013.75 1012.96 1012.14 1011.32 1010.53 1009.79 1009.11 1008.53 1008.06 1007.72 1007.53 1007.51 1007.66 1008.00 1008.50 1009.17 1009.98 1010.90 1011.89 1012.90 1013.87 1014.76 1015.52 1016.13 1016.58
Thickness
5824 5810 5799 5807 5812 5811 5803 5793 5788 5796 5810 5801 5793 5792 5797 5802 5800 5795 5792 5790 5788 5788 5791 5789 5787 5785 5781 5777 5774 5772 5769 5766 5764 5760 5757 5755 5753 5753 5753 5753 5752 5751 5751 5750
5803 5801 5816 5821 5819 5813 5804 5795 5792 5800 5810 5803 5792 5792 5800 5803 5803 5803 5799 5795 5792 5790 5789 5789 5788 5785 5782 5778 5775 5773 5770 5768 5765 5763 5760 5758 5756 5755 5754 5753 5753 5752 5751 5751
5798 5808 5823 5818 5811 5805 5802 5797 5796 5795 5801 5800 5793 5786 5793 5802 5806 5806 5805 5803 5799 5796 5791 5790 5788 5786 5783 5780 5777 5776 5773 5770 5767 5764 5761 5758 5756 5754 5753 5752 5752 5752 5751 5751
5801 5814 5817 5812 5808 5806 5794 5811 5807 5798 5784 5772 5783 5761 5785 5794 5797 5802 5805 5805 5803 5802 5799 5795 5792 5788 5786 5784 5781 5778 5775 5772 5769 5766 5763 5758 5754 5750 5751 5751 5751 5751 5751 5750
5796 5810 5811 5807 5812 5814 5806 5813 5805 5795 5780 5768 5773 5763 5775 5791 5791 5800 5808 5810 5810 5808 5805 5800 5797 5794 5791 5789 5784 5780 5776 5773 5770 5768 5764 5760 5756 5753 5752 5751 5750 5749 5750 5749
5802 5816 5818 5816 5820 5820 5813 5799 5787 5774 5766 5752 5767 5761 5768 5784 5798 5808 5815 5817 5816 5813 5809 5805 5802 5798 5793 5790 5786 5782 5777 5773 5771 5768 5765 5761 5757 5753 5750 5749 5748 5747 5747 5748
5787 5801 5815 5820 5807 5808 5801 5775 5748 5745 5736 5744 5766 5763 5773 5805 5814 5818 5820 5820 5820 5817 5811 5805 5801 5798 5794 5790 5786 5782 5777 5774 5772 5769 5766 5763 5759 5755 5752 5749 5747 5746 5745 5745
5764 5768 5800 5811 5806 5794 5790 5778 5748 5736 5732 5743 5760 5760 5789 5817 5824 5827 5828 5826 5822 5818 5814 5809 5807 5803 5798 5794 5789 5785 5780 5776 5773 5770 5767 5764 5761 5757 5753 5751 5749 5747 5745 5744
5757 5765 5799 5811 5815 5803 5782 5774 5775 5750 5744 5740 5749 5768 5795 5819 5821 5824 5825 5824 5821 5819 5817 5815 5812 5807 5802 5797 5793 5789 5783 5778 5774 5772 5768 5764 5761 5758 5754 5752 5749 5747 5745 5744
5769 5765 5787 5800 5806 5799 5794 5775 5757 5744 5730 5731 5748 5760 5775 5802 5811 5818 5820 5821 5821 5820 5819 5817 5814 5810 5805 5801 5796 5792 5786 5781 5776 5772 5769 5765 5761 5758 5755 5751 5748 5746 5744 5742
5772 5761 5771 5783 5784 5780 5778 5769 5755 5741 5743 5730 5732 5755 5800 5806 5815 5817 5821 5824 5824 5822 5821 5818 5815 5811 5807 5802 5797 5792 5786 5781 5776 5772 5768 5764 5760 5756 5753 5749 5747 5744 5742 5739
5762 5749 5746 5765 5785 5792 5788 5774 5760 5749 5741 5736 5736 5759 5814 5814 5819 5820 5822 5824 5824 5823 5822 5819 5815 5811 5806 5801 5796 5792 5787 5781 5777 5772 5767 5762 5759 5755 5751 5748 5745 5742 5739 5736
5756 5741 5731 5741 5755 5773 5775 5772 5767 5754 5739 5728 5735 5764 5811 5813 5817 5820 5821 5821 5820 5819 5818 5816 5813 5809 5805 5801 5796 5792 5787 5782 5777 5772 5766 5761 5757 5753 5749 5746 5743 5740 5736 5733
5758 5735 5732 5730 5741 5758 5763 5766 5763 5756 5739 5734 5746 5768 5795 5804 5809 5815 5818 5819 5817 5816 5814 5812 5809 5807 5804 5800 5796 5791 5786 5782 5776 5770 5764 5759 5755 5752 5748 5744 5740 5736 5733 5730
5749 5733 5740 5746 5756 5761 5764 5764 5763 5763 5757 5751 5761 5768 5789 5800 5807 5813 5815 5815 5813 5811 5811 5810 5807 5804 5801 5797 5793 5790 5785 5781 5775 5769 5762 5758 5754 5751 5746 5742 5737 5734 5730 5726
5733 5729 5735 5740 5750 5756 5757 5761 5763 5765 5764 5765 5770 5774 5795 5801 5805 5807 5810 5810 5809 5810 5811 5809 5807 5804 5800 5797 5792 5788 5783 5779 5774 5767 5761 5757 5752 5747 5742 5738 5734 5730 5725 5721
5717 5720 5716 5718 5735 5745 5737 5752 5758 5762 5765 5765 5763 5777 5792 5795 5798 5802 5807 5809 5810 5811 5811 5809 5807 5805 5802 5799 5794 5788 5783 5778 5771 5766 5760 5755 5750 5744 5740 5735 5729 5725 5721 5717
5711 5706 5700 5704 5720 5712 5734 5759 5763 5761 5764 5768 5773 5780 5786 5791 5797 5803 5806 5806 5808 5809 5809 5809 5807 5804 5802 5798 5793 5786 5779 5773 5768 5762 5757 5751 5745 5740 5735 5730 5725 5721 5717 5713
5708 5703 5691 5688 5696 5710 5733 5749 5752 5751 5753 5766 5768 5776 5782 5789 5792 5795 5803 5805 5807 5808 5808 5807 5807 5804 5799 5795 5789 5781 5773 5768 5763 5758 5753 5748 5742 5736 5730 5726 5721 5716 5712 5708
5696 5698 5689 5683 5690 5692 5723 5747 5755 5750 5741 5762 5766 5768 5773 5777 5768 5781 5798 5801 5804 5805 5804 5803 5801 5799 5794 5790 5785 5776 5769 5764 5760 5755 5751 5745 5739 5733 5727 5722 5717 5712 5708 5704
5680 5679 5679 5679 5685 5697 5725 5740 5747 5725 5733 5756 5760 5763 5765 5766 5771 5782 5791 5794 5798 5799 5799 5799 5796 5792 5789 5785 5781 5773 5766 5762 5758 5752 5746 5740 5735 5729 5724 5718 5713 5708 5704 5699
5671 5669 5669 5669 5675 5689 5724 5729 5725 5728 5742 5749 5753 5757 5759 5764 5770 5776 5780 5784 5788 5790 5792 5792 5788 5784 5781 5778 5773 5768 5763 5760 5754 5746 5740 5736 5731 5726 5720 5714 5709 5704 5699 5695
5666 5671 5672 5676 5684 5703 5714 5720 5727 5731 5734 5740 5745 5751 5755 5758 5762 5767 5771 5774 5777 5780 5782 5783 5780 5777 5774 5772 5769 5763 5759 5755 5749 5741 5735 5731 5726 5721 5716 5711 5705 5700 5695 5691
5664 5668 5669 5674 5687 5699 5706 5714 5721 5726 5729 5735 5739 5744 5747 5750 5754 5757 5761 5764 5767 5769 5771 5772 5770 5767 5765 5763 5761 5759 5755 5750 5744 5737 5731 5725 5720 5715 5710 5706 5702 5697 5692 5688
5658 5662 5662 5667 5680 5690 5699 5705 5712 5718 5723 5727 5731 5735 5738 5741 5744 5747 5750 5754 5757 5759 5760 5760 5760 5759 5758 5755 5752 5750 5748 5744 5738 5733 5726 5720 5715 5711 5706 5701 5697 5694 5691 5688
5651 5654 5656 5661 5674 5677 5685 5697 5704 5708 5711 5716 5719 5723 5728 5732 5735 5739 5740 5744 5746 5748 5748 5748 5749 5749 5748 5745 5744 5742 5740 5737 5733 5727 5721 5716 5710 5705 5701 5696 5690 5686 5684 5682